Погода в Новом Шарое

Россия / Чеченская Республика     43°15′09″N   45°16′09″E
темп.,
°C
ветер,
м/с
пор.,
м/с
влажн.,
%
обл.,
%
осадки,
мм/ч
давл.,
гПа
погр.,
м
11 мая, вт
вт1100:00+5зюз228313 0.0 102116
03:00+3вюв01854 0.0 101911
06:00+5зюз11794 0.0 101984
09:00+11в34615 0.0 10171007
12:00+15всв23511 0.0 10151269
15:00+17в12459 0.0 10141379
18:00+13всв696394 0.0 1015450
21:00+8в228133 0.0 101732
12 мая, ср
ср1200:00+7зюз11890 0.0 101711
03:00+6зсз11890 0.0 101610
06:00+8сз12830 0.0 101790
09:00+14св22674 0.0 1016734
12:00+17св325720 0.0 10161211
15:00+19св225219 0.0 10151378
18:00+18св22672 0.0 101552
21:00+12с01840 0.0 101611
13 мая, чт
чт1300:00+11ююз11880 0.0 101511
03:00+10юз11895 0.0 101511
06:00+12ююз00830 0.0 101546
09:00+18всв23650 0.0 1014526
12:00+23в34513 0.0 1013898
15:00+25в444912 0.0 10131105
18:00+22всв24693 0.0 101385
21:00+15ююв118653 0.0 101511
14 мая, пт
пт1400:00+14зюз118649 0.0 101411
03:00+13зюз11835 0.0 101410
06:00+15зюз11765 0.0 101434
09:00+22св216137 0.0 1013382
12:00+26в33464 0.0 1013826
15:00+28всв34473 0.0 10121097
18:00+25ссв22632 0.0 101120
21:00+19зюз11790 0.0 101212
15 мая, сб
сб1500:00+18юз22764 0.0 101113
03:00+17зюз22625 0.0 101111
06:00+18зюз22651 0.0 101230
09:00+24ссв215214 0.0 1013422
12:00+28с22495 0.0 10131253
15:00+29с22470 0.0 10111319
18:00
21:00+19зюз348475 3.4 101562